Database contains data from 2013-07-07 to 2026-09-05.
92 measurements (5-min interval)
| Time | Temp °C | Dew °C | Humid % | Wind m/s | Gust m/s | Dir ° | Rain mm | Press. hPa | UV | Solar W/m² |
|---|---|---|---|---|---|---|---|---|---|---|
| 00:00 | 12,3 | 11,2 | 93 | 1,3 | 2,7 | 45 | 0,00 | 994,2 | 0,0 | 0 |
| 00:05 | 12,3 | 11,2 | 93 | 1,3 | 2,7 | 23 | 0,00 | 994,2 | 0,0 | 0 |
| 00:10 | 12,3 | 11,2 | 93 | 1,3 | 2,7 | 45 | 0,00 | 994,2 | 0,0 | 0 |
| 00:15 | 12,3 | 11,2 | 93 | 0,9 | 1,8 | 45 | 0,00 | 994,3 | 0,0 | 0 |
| 00:20 | 12,3 | 11,2 | 93 | 0,9 | 1,8 | 45 | 0,00 | 994,3 | 0,0 | 0 |
| 00:25 | 12,3 | 11,2 | 93 | 0,9 | 1,8 | 45 | 0,00 | 994,3 | 0,0 | 0 |
| 00:30 | 12,3 | 11,2 | 93 | 0,4 | 1,3 | 45 | 0,00 | 994,4 | 0,0 | 0 |
| 00:35 | 12,3 | 11,2 | 93 | 0,4 | 1,8 | 45 | 0,00 | 994,4 | 0,0 | 0 |
| 00:40 | 12,4 | 11,3 | 93 | 0,4 | 1,8 | 45 | 0,00 | 994,4 | 0,0 | 0 |
| 00:45 | 12,4 | 11,3 | 93 | 1,8 | 4,0 | 158 | 0,00 | 994,6 | 0,0 | 0 |
| 00:50 | 12,4 | 11,3 | 93 | 1,8 | 3,1 | 158 | 0,00 | 994,6 | 0,0 | 0 |
| 00:55 | 12,3 | 11,2 | 93 | 1,3 | 3,1 | 158 | 0,00 | 994,6 | 0,0 | 0 |
| 01:00 | 12,2 | 11,1 | 93 | 1,3 | 3,6 | 135 | 0,00 | 994,6 | 0,0 | 0 |
| 01:05 | 12,2 | 11,1 | 93 | 1,8 | 3,1 | 135 | 0,25 | 994,6 | 0,0 | 0 |
| 01:10 | 12,1 | 11,0 | 93 | 0,9 | 2,2 | 135 | 0,25 | 994,6 | 0,0 | 0 |
| 01:15 | 12,0 | 10,9 | 93 | 0,9 | 1,8 | 135 | 0,25 | 994,5 | 0,0 | 0 |
| 01:20 | 11,9 | 11,0 | 94 | 0,4 | 1,3 | 135 | 0,51 | 994,5 | 0,0 | 0 |
| 01:25 | 11,9 | 11,0 | 94 | 0,4 | 1,8 | 135 | 0,51 | 994,5 | 0,0 | 0 |
| 01:30 | 11,9 | 11,0 | 94 | 0,0 | 0,0 | – | 0,51 | 994,3 | 0,0 | 0 |
| 01:35 | 11,8 | 10,9 | 94 | 0,0 | 0,4 | – | 0,25 | 994,3 | 0,0 | 0 |
| 01:40 | 11,8 | 10,9 | 94 | 0,4 | 1,3 | 135 | 0,25 | 994,3 | 0,0 | 0 |
| 01:45 | 11,8 | 10,9 | 94 | 0,0 | 0,9 | – | 0,51 | 994,2 | 0,0 | 0 |
| 01:50 | 11,8 | 10,8 | 94 | 0,4 | 1,3 | 135 | 0,25 | 994,2 | 0,0 | 0 |
| 01:55 | 11,8 | 10,8 | 94 | 0,9 | 1,8 | 135 | 0,25 | 994,2 | 0,0 | 0 |
| 02:00 | 11,7 | 10,9 | 95 | 0,9 | 1,8 | 135 | 0,00 | 994,1 | 0,0 | 0 |
| 02:05 | 11,7 | 10,9 | 95 | 0,4 | 1,8 | 135 | 0,00 | 994,1 | 0,0 | 0 |
| 02:10 | 11,7 | 10,9 | 95 | 0,4 | 1,8 | 135 | 0,00 | 994,1 | 0,0 | 0 |
| 02:15 | 11,7 | 10,9 | 95 | 0,9 | 2,2 | 90 | 0,00 | 994,0 | 0,0 | 0 |
| 02:20 | 11,7 | 10,9 | 95 | 0,9 | 3,1 | 68 | 0,25 | 994,0 | 0,0 | 0 |
| 02:25 | 11,7 | 10,9 | 95 | 0,9 | 3,1 | 68 | 0,00 | 994,0 | 0,0 | 0 |
| 02:30 | 11,7 | 10,9 | 95 | 0,4 | 2,2 | 68 | 0,00 | 994,1 | 0,0 | 0 |
| 02:35 | 11,7 | 10,9 | 95 | 0,4 | 1,8 | 68 | 0,00 | 994,1 | 0,0 | 0 |
| 02:40 | 11,6 | 10,8 | 95 | 0,9 | 1,8 | 68 | 0,00 | 994,1 | 0,0 | 0 |
| 02:45 | 11,6 | 10,8 | 95 | 0,4 | 1,3 | 68 | 0,00 | 994,2 | 0,0 | 0 |
| 02:50 | 11,6 | 10,8 | 95 | 0,4 | 1,8 | 68 | 0,00 | 994,2 | 0,0 | 0 |
| 02:55 | 11,6 | 10,8 | 95 | 0,4 | 2,2 | 68 | 0,00 | 994,2 | 0,0 | 0 |
| 03:00 | 11,6 | 10,8 | 95 | 0,4 | 1,3 | 68 | 0,00 | 994,1 | 0,0 | 0 |
| 03:05 | 11,6 | 10,6 | 94 | 0,4 | 2,2 | 68 | 0,00 | 994,1 | 0,0 | 0 |
| 03:10 | 11,6 | 10,6 | 94 | 0,4 | 1,8 | 68 | 0,00 | 994,1 | 0,0 | 0 |
| 03:15 | 11,6 | 10,6 | 94 | 0,4 | 1,8 | 68 | 0,00 | 994,1 | 0,0 | 0 |
| 03:20 | 11,6 | 10,7 | 94 | 0,9 | 3,6 | 90 | 0,00 | 994,1 | 0,0 | 0 |
| 03:25 | 11,6 | 10,7 | 94 | 0,9 | 2,2 | 90 | 0,00 | 994,1 | 0,0 | 0 |
| 03:30 | 11,6 | 10,7 | 94 | 1,3 | 3,6 | 90 | 0,00 | 994,2 | 0,0 | 0 |
| 03:35 | 11,7 | 10,7 | 94 | 0,4 | 2,2 | 90 | 0,25 | 994,2 | 0,0 | 0 |
| 03:40 | 11,7 | 10,7 | 94 | 0,9 | 2,7 | 90 | 0,25 | 994,2 | 0,0 | 0 |
| 03:45 | 11,7 | 10,7 | 94 | 0,4 | 1,3 | 90 | 0,00 | 994,2 | 0,0 | 0 |
| 03:50 | 11,7 | 10,7 | 94 | 0,4 | 2,2 | 90 | 0,25 | 994,2 | 0,0 | 0 |
| 03:55 | 11,6 | 10,7 | 94 | 0,9 | 2,2 | 90 | 0,25 | 994,2 | 0,0 | 0 |
| 04:00 | 11,6 | 10,7 | 94 | 0,4 | 2,7 | 90 | 0,00 | 994,2 | 0,0 | 0 |
| 04:05 | 11,6 | 10,6 | 94 | 0,9 | 2,2 | 90 | 0,00 | 994,2 | 0,0 | 0 |
| 04:10 | 11,6 | 10,6 | 94 | 0,9 | 1,8 | 68 | 0,00 | 994,2 | 0,0 | 0 |
| 04:15 | 11,6 | 10,7 | 94 | 1,3 | 2,2 | 45 | 0,25 | 994,2 | 0,0 | 0 |
| 04:20 | 11,6 | 10,7 | 94 | 0,9 | 2,2 | 45 | 0,00 | 994,2 | 0,0 | 0 |
| 04:25 | 11,6 | 10,7 | 94 | 0,9 | 2,2 | 45 | 0,00 | 994,2 | 0,0 | 0 |
| 04:30 | 11,7 | 10,7 | 94 | 0,9 | 2,2 | 45 | 0,00 | 994,2 | 0,0 | 0 |
| 04:35 | 11,7 | 10,7 | 94 | 0,9 | 2,2 | 45 | 0,00 | 994,2 | 0,0 | 0 |
| 04:40 | 11,7 | 10,7 | 94 | 1,3 | 2,7 | 45 | 0,00 | 994,2 | 0,0 | 0 |
| 04:45 | 11,7 | 10,7 | 94 | 0,4 | 1,8 | 45 | 0,00 | 994,2 | 0,0 | 0 |
| 04:50 | 11,7 | 10,7 | 94 | 0,9 | 1,8 | 45 | 0,25 | 994,2 | 0,0 | 0 |
| 04:55 | 11,7 | 10,7 | 94 | 1,3 | 2,7 | 23 | 0,00 | 994,2 | 0,0 | 0 |
| 05:00 | 11,7 | 10,7 | 94 | 1,3 | 2,7 | 23 | 0,00 | 994,2 | 0,0 | 0 |
| 05:05 | 11,6 | 10,7 | 94 | 1,8 | 2,7 | 23 | 0,00 | 994,2 | 0,0 | 0 |
| 05:10 | 11,6 | 10,7 | 94 | 1,3 | 2,7 | 23 | 0,00 | 994,2 | 0,0 | 0 |
| 05:15 | 11,6 | 10,7 | 94 | 1,8 | 3,6 | 45 | 0,00 | 994,3 | 0,0 | 0 |
| 05:20 | 11,6 | 10,7 | 94 | 1,8 | 3,1 | 45 | 0,00 | 994,3 | 0,0 | 0 |
| 05:25 | 11,6 | 10,5 | 93 | 1,3 | 3,1 | 45 | 0,00 | 994,3 | 0,0 | 0 |
| 05:30 | 11,6 | 10,5 | 93 | 0,9 | 2,7 | 0 | 0,00 | 994,5 | 0,0 | 0 |
| 05:35 | 11,6 | 10,5 | 93 | 1,8 | 3,1 | 23 | 0,00 | 994,5 | 0,0 | 0 |
| 05:40 | 11,6 | 10,5 | 93 | 1,8 | 2,7 | 23 | 0,00 | 994,5 | 0,0 | 0 |
| 05:45 | 11,6 | 10,5 | 93 | 1,3 | 2,7 | 23 | 0,00 | 994,7 | 0,0 | 0 |
| 05:50 | 11,6 | 10,5 | 93 | 1,3 | 2,2 | 23 | 0,00 | 994,7 | 0,0 | 0 |
| 05:55 | 11,5 | 10,4 | 93 | 1,3 | 2,7 | 23 | 0,00 | 994,7 | 0,0 | 0 |
| 06:00 | 11,4 | 10,4 | 93 | 1,3 | 2,2 | 0 | 0,00 | 994,7 | 0,0 | 0 |
| 06:05 | 11,4 | 10,4 | 93 | 1,3 | 2,2 | 0 | 0,00 | 994,7 | 0,0 | 0 |
| 06:10 | 11,4 | 10,4 | 93 | 0,9 | 2,2 | 0 | 0,00 | 994,7 | 0,0 | 0 |
| 06:15 | 11,4 | 10,4 | 93 | 1,3 | 2,2 | 23 | 0,00 | 994,8 | 0,0 | 0 |
| 06:20 | 11,4 | 10,1 | 92 | 1,3 | 2,2 | 23 | 0,00 | 994,8 | 0,0 | 0 |
| 06:25 | 11,4 | 10,1 | 92 | 1,3 | 2,2 | 23 | 0,00 | 994,8 | 0,0 | 0 |
| 06:30 | 11,4 | 10,1 | 92 | 0,9 | 1,8 | 23 | 0,00 | 995,2 | 0,0 | 0 |
| 06:35 | 11,3 | 10,1 | 92 | 0,0 | 0,9 | – | 0,00 | 995,2 | 0,0 | 0 |
| 06:40 | 11,4 | 10,1 | 92 | 0,0 | 0,0 | – | 0,00 | 995,2 | 0,0 | 0 |
| 06:45 | 11,5 | 10,2 | 92 | 0,0 | 0,0 | – | 0,00 | 995,2 | 0,0 | 0 |
| 06:50 | 11,4 | 10,1 | 92 | 0,0 | 0,0 | – | 0,00 | 995,2 | 0,0 | 0 |
| 06:55 | 11,2 | 10,0 | 92 | 0,0 | 0,0 | – | 0,00 | 995,2 | 0,0 | 0 |
| 07:00 | 11,1 | 10,0 | 93 | 0,0 | 0,0 | – | 0,00 | 995,4 | 0,0 | 0 |
| 07:05 | 10,9 | 9,8 | 93 | 0,0 | 0,0 | – | 0,00 | 995,4 | 0,0 | 0 |
| 07:10 | 10,9 | 9,8 | 93 | 0,0 | 0,0 | – | 0,00 | 995,4 | 0,0 | 4 |
| 07:15 | 11,0 | 9,9 | 93 | 0,0 | 0,0 | – | 0,00 | 995,7 | 0,0 | 5 |
| 07:20 | 11,0 | 9,9 | 93 | 0,0 | 0,0 | – | 0,00 | 995,7 | 0,0 | 5 |
| 07:25 | 10,9 | 10,0 | 94 | 0,0 | 0,0 | – | 0,00 | 995,7 | 0,0 | 7 |
| 07:30 | 10,9 | 10,0 | 94 | 0,0 | 0,0 | – | 0,00 | 995,8 | 0,0 | 8 |
| 07:35 | 10,9 | 10,0 | 94 | 0,0 | 0,0 | – | 0,00 | 995,8 | 0,0 | 9 |